EW5923 Weather Reports


Display with metric or nautical units.
time (UTC)temp
F
wind
direction
speed
MPH
gust
MPH
rain 1hr
in
rain 24hr
in
rain mn
in
humidity
%
barometer
mb
20260504232123 76 358 4.0 6.0 0.00 0.00 0.00 38 1009.6
20260504231122 77 354 7.0 12.0 0.00 0.00 0.00 37 1009.8
20260504230122 76 357 4.0 8.0 0.00 0.00 0.00 38 1009.9
20260504225122 77 359 8.0 12.0 0.00 0.00 0.00 35 1009.9
20260504224122 77 360 6.0 12.0 0.00 0.00 0.00 37 1010.0
20260504223122 77 360 6.0 9.0 0.00 0.00 0.00 36 1009.8
20260504222122 77 360 7.0 11.0 0.00 0.00 0.00 36 1010.0
20260504221122 76 358 6.0 11.0 0.00 0.00 0.00 36 1009.7
20260504220122 77 359 8.0 15.0 0.00 0.00 0.00 36 1010.0
20260504215122 77 360 6.0 10.0 0.00 0.00 0.00 36 1010.4
20260504214143 77 360 10.0 18.0 0.00 0.00 0.00 36 1010.6
20260504213122 77 360 10.0 16.0 0.00 0.00 0.00 36 1010.9
20260504212143 77 360 10.0 18.0 0.00 0.00 0.00 35 1011.1
20260504211122 78 360 11.0 18.0 0.00 0.00 0.00 35 1010.9
20260504210122 78 359 12.0 18.0 0.00 0.00 0.00 36 1010.9
20260504205122 78 359 10.0 19.0 0.00 0.00 0.00 35 1010.9
20260504204143 78 359 10.0 18.0 0.00 0.00 0.00 35 1010.4
20260504203122 77 359 9.0 17.0 0.00 0.00 0.00 36 1010.6
20260504202122 78 359 7.0 11.0 0.00 0.00 0.00 35 1010.8
20260504201123 77 360 8.0 14.0 0.00 0.00 0.00 35 1010.7
20260504200123 77 360 5.0 12.0 0.00 0.00 0.00 36 1010.9
20260504195122 78 358 8.0 16.0 0.00 0.00 0.00 35 1011.1
20260504194142 77 359 8.0 14.0 0.00 0.00 0.00 35 1011.2
20260504193121 78 359 10.0 16.0 0.00 0.00 0.00 34 1011.3
20260504192142 77 358 8.0 15.0 0.00 0.00 0.00 34 1011.0
20260504191121 78 359 8.0 14.0 0.00 0.00 0.00 33 1010.8
20260504190121 77 353 7.0 13.0 0.00 0.00 0.00 35 1010.7
20260504185121 77 355 6.0 10.0 0.00 0.00 0.00 34 1010.6
20260504184121 77 360 13.0 21.0 0.00 0.00 0.00 34 1011.0
20260504183143 77 356 13.0 17.0 0.00 0.00 0.00 35 1011.1
20260504182121 77 354 12.0 19.0 0.00 0.00 0.00 35 1011.2
20260504181121 76 360 10.0 16.0 0.00 0.00 0.00 35 1010.7
20260504180121 77 360 9.0 15.0 0.00 0.00 0.00 35 1010.7
20260504175121 77 360 10.0 16.0 0.00 0.00 0.00 34 1010.7
20260504174121 77 360 7.0 13.0 0.00 0.00 0.00 35 1010.9
20260504173142 76 360 9.0 15.0 0.00 0.00 0.00 35 1011.1
20260504172121 77 360 8.0 15.0 0.00 0.00 0.00 34 1011.2
20260504171121 76 360 7.0 12.0 0.00 0.00 0.00 35 1011.5
20260504170121 76 359 11.0 17.0 0.00 0.00 0.00 35 1011.4
20260504160121 75 360 9.0 16.0 0.00 0.00 0.00 36 1011.2
20260504151121 73 360 6.0 10.0 0.00 0.00 0.00 43 1010.6
20260504150121 73 359 5.0 11.0 0.00 0.00 0.00 44 1010.8
20260504141121 72 360 0.0 1.0 0.00 0.00 0.00 43 1010.4
20260504140142 71 360 1.0 3.0 0.00 0.00 0.00 44 1010.3
20260504130121 68 69 2.0 3.0 0.00 0.00 0.00 45 1009.7
20260504120121 72 360 1.0 3.0 0.00 0.00 0.00 41 1009.3
20260504110121 72 21 2.0 4.0 0.00 0.00 0.00 40 1009.0
20260504100121 73 358 1.0 4.0 0.00 0.00 0.00 42 1009.4
20260504090121 72 360 0.0 0.0 0.00 0.00 0.00 42 1008.6
20260504081121 75 338 3.0 6.0 0.00 0.00 0.00 38 1008.8
20260504080142 76 358 5.0 9.0 0.00 0.00 0.00 38 1009.0
20260504070121 77 359 10.0 15.0 0.00 0.00 0.00 36 1009.2
20260504060122 78 360 9.0 13.0 0.00 0.00 0.00 30 1008.9
20260504050122 80 360 11.0 17.0 0.00 0.00 0.00 25 1009.0
20260504045121 80 359 8.0 15.0 0.00 0.00 0.00 24 1008.9
20260504044121 81 360 11.0 16.0 0.00 0.00 0.00 23 1008.8
20260504043122 81 360 10.0 16.0 0.00 0.00 0.00 23 1008.5
20260504042144 81 359 12.0 19.0 0.00 0.00 0.00 23 1008.4
20260504041142 81 360 13.0 17.0 0.00 0.00 0.00 23 1008.2
20260504040121 82 360 13.0 20.0 0.00 0.00 0.00 22 1008.1
20260504035121 82 360 14.0 21.0 0.00 0.00 0.00 22 1007.9
20260504034121 83 360 14.0 21.0 0.00 0.00 0.00 21 1007.4
20260504033122 83 359 11.0 19.0 0.00 0.00 0.00 20 1007.3
20260504032121 84 360 13.0 21.0 0.00 0.00 0.00 19 1007.1
20260504031122 84 359 13.0 19.0 0.00 0.00 0.00 19 1006.6
20260504030122 84 360 10.0 15.0 0.00 0.00 0.00 19 1006.7
20260504025122 85 360 9.0 18.0 0.00 0.00 0.00 18 1006.3
20260504024122 86 360 13.0 22.0 0.00 0.00 0.00 17 1005.9
20260504023122 86 360 12.0 21.0 0.00 0.00 0.00 17 1005.9
20260504022121 87 360 11.0 18.0 0.00 0.00 0.00 17 1005.7
20260504021121 87 359 15.0 25.0 0.00 0.00 0.00 16 1005.7
20260504020122 88 359 17.0 27.0 0.00 0.00 0.00 15 1005.1
20260504015122 89 359 15.0 24.0 0.00 0.00 0.00 15 1005.1
20260504014121 89 359 15.0 22.0 0.00 0.00 0.00 15 1005.0
20260504013121 90 360 14.0 20.0 0.00 0.00 0.00 15 1005.0
20260504012142 90 360 14.0 21.0 0.00 0.00 0.00 14 1004.9
20260504011122 91 360 13.0 21.0 0.00 0.00 0.00 14 1004.9
20260504010122 91 360 14.0 24.0 0.00 0.00 0.00 14 1004.9
20260504005122 92 359 12.0 19.0 0.00 0.00 0.00 14 1005.0
20260504004121 93 359 11.0 20.0 0.00 0.00 0.00 13 1005.0
20260504003122 93 360 16.0 25.0 0.00 0.00 0.00 13 1005.0
20260504002122 93 359 6.0 11.0 0.00 0.00 0.00 15 1004.8
20260504001121 93 0 7.0 14.0 0.00 0.00 0.00 15 1004.8
20260504000122 93 360 9.0 17.0 0.00 0.00 0.00 16 1005.0
20260503235143 92 0 7.0 13.0 0.00 0.00 0.00 15 1004.9
20260503234121 93 360 9.0 18.0 0.00 0.00 0.00 15 1005.1
20260503233122 93 2 5.0 10.0 0.00 0.00 0.00 15 1005.1